Regional Weather Roundup
Issued by NWS Cleveland, OH

Home | Current Version | Previous Version | Text Only | Print | Product List | Glossary On
Versions: 1 2 3 4 5 6 7 8 9 10 11 12 13 14 15 16 17 18 19 20 21 22 23 24 25 26 27 28 29 30 31 32 33 34 35 36 37 38 39 40 41 42 43 44 45 46 47 48 49 50
000
ASUS41 KCLE 030610
RWRCLE
OHIO REGIONAL WEATHER ROUNDUP
NATIONAL WEATHER SERVICE CLEVELAND, OH
200 AM EDT FRI JUL 03 2015

NOTE: "FAIR" INDICATES FEW OR NO CLOUDS BELOW 12,000 FEET WITH NO
SIGNIFICANT WEATHER AND/OR OBSTRUCTIONS TO VISIBILITY.

OHZ001>008-015>018-024>027-034-035-043-044-030700-
   NORTHWEST OHIO

CITY           SKY/WX    TMP DP  RH WIND       PRES   REMARKS
DEFIANCE       MOCLDY    61  55  81 NE3       29.99S
FINDLAY        PTCLDY    62  54  74 E9        29.97F
TOLEDO EXPRESS PTCLDY    56  55  97 CALM      29.99F
TOLEDO EXEC    PTCLDY    61  55  81 NE6       29.99F
LIMA           CLOUDY    60  54  80 NE6       29.98R
$$

OHZ009>014-019>023-028>033-038-089-030700-
   NORTHEAST OHIO

CITY           SKY/WX    TMP DP  RH WIND       PRES   REMARKS
CLE-HOPKINS    PTCLDY    62  52  69 E7        30.00F
CLE-LAKEFRONT  CLEAR     63  53  70 E5        29.98F
CUY CO. ARPT   NOT AVBL
LORAIN-ELYRIA  FAIR      58  56  93 NE5       29.99F FOG
ASHTABULA      CLEAR     53  51  93 CALM      30.01S
AKRON-CANTON   PTCLDY    58  52  80 NE7       29.98F
WOOSTER        PTCLDY    57  53  86 NE5       29.99F
MANSFIELD      PTCLDY    57  54  89 N5        29.98F
YOUNGSTOWN     PTCLDY    53  51  93 CALM      29.99F
$$

OHZ042-051>053-060>062-070>072-077>081-030700-
  SOUTHWEST OHIO

CITY           SKY/WX    TMP DP  RH WIND       PRES   REMARKS
CINC-COVINGTON CLOUDY    69  65  86 E8        29.91R FOG
CINC-LUNKEN    CLOUDY    68  66  93 CALM      29.91R
HAMILTON       MOCLDY    69  63  81 NE7       29.92S
DAYTON         MOCLDY    64  56  75 NE6       29.95S
WRIGHT-PAT AFB CLEAR     63  56  76 NE7       29.94R
DAYTON GENERAL PTCLDY    65  59  81 NE9       29.92F
WILMINGTON     CLEAR     64  61  90 NE8       29.92F FOG
$$

OHZ036-037-039>041-045>050-054>059-063>069-073>076-082>088-030700-
  CENTRAL AND SOUTHEAST OHIO

CITY           SKY/WX    TMP DP  RH WIND       PRES   REMARKS
COLUMBUS       PTCLDY    62  55  77 NE6       29.95S
OSU AIRPORT    CLEAR     60  55  83 N6        29.96S
BOLTON FIELD   PTCLDY    62  58  86 NE5       29.96S
RICKENBACK AFB PTCLDY    61  58  90 NE8       29.94S
NEWARK         CLOUDY    63  56  78 CALM      29.96S
MARION         MOCLDY    59  54  83 NE3       29.98S
LANCASTER      PTCLDY    63  58  83 E3        29.95S
ZANESVILLE     NOT AVBL
NEW PHILLY     PTCLDY    57  56  96 CALM      29.97F
$$


USA.gov is the U.S. government's official web portal to all federal, state and local government web resources and services.